EW5925 Weather Reports


time (UTC)temp
F
wind
direction
speed
knots
gust
knots
rain 1hr
in
rain 24hr
in
rain mn
in
humidity
%
barometer
mb
20260504182230 65 202 0.0 0.0 0.00 0.00 0.00 94 1016.0
20260504181942 65 202 0.0 0.0 0.00 0.00 0.00 94 1016.0
20260504181223 65 202 0.0 0.0 0.00 0.00 0.00 94 1015.9
20260504180718 65 202 0.0 0.0 0.00 0.00 0.00 94 1015.9
20260504180224 65 202 0.0 0.0 0.00 0.00 0.00 94 1015.8
20260504175651 65 202 0.0 0.0 0.00 0.00 0.00 94 1015.8
20260504175137 65 202 0.0 0.9 0.00 0.00 0.00 94 1015.8
20260504174903 65 202 0.0 1.7 0.00 0.00 0.00 94 1015.9
20260504174134 66 202 0.0 1.7 0.00 0.00 0.00 94 1016.0
20260504173633 66 202 0.0 1.7 0.00 0.00 0.00 94 1016.0
20260504173133 66 202 0.0 0.0 0.00 0.00 0.00 94 1016.0
20260504172625 66 202 0.0 0.0 0.00 0.00 0.00 94 1015.9
20260504172350 66 202 0.0 0.0 0.00 0.00 0.00 94 1015.8
20260504171623 66 202 0.0 0.0 0.00 0.01 0.00 94 1015.8
20260504171121 66 202 0.0 0.0 0.00 0.01 0.00 94 1015.8
20260504170841 66 202 0.0 0.0 0.00 0.01 0.00 94 1016.0
20260504170117 66 202 0.0 0.0 0.00 0.01 0.00 94 1015.9
20260504160253 65 189 0.9 3.5 0.00 0.01 0.00 94 1016.5
20260504151006 64 89 0.0 0.0 0.00 0.01 0.00 92 1016.5
20260504150505 64 89 0.0 0.0 0.00 0.01 0.00 92 1016.6
20260504140939 64 89 0.0 0.0 0.00 0.01 0.00 91 1017.1
20260504140921 65 89 0.0 0.0 0.00 0.01 0.00 91 1017.2
20260504130620 66 89 0.0 0.0 0.00 0.01 0.01 91 1017.5
20260504120317 67 89 0.0 0.0 0.00 0.01 0.01 90 1017.8
20260504110718 68 89 0.0 0.0 0.00 0.01 0.01 89 1018.2
20260504110215 68 89 0.0 0.0 0.00 0.01 0.01 89 1018.2
20260504100128 70 89 0.0 1.7 0.00 0.01 0.01 88 1018.0
20260504081821 72 89 0.9 3.5 0.00 0.01 0.01 84 1017.0
20260504081519 72 89 0.9 3.5 0.00 0.01 0.01 84 1017.0
20260504080733 72 89 0.9 2.6 0.00 0.01 0.01 84 1016.8
20260504080208 73 89 0.9 2.6 0.00 0.01 0.01 83 1016.8
20260504070157 74 124 1.7 6.1 0.00 0.01 0.01 78 1016.2
20260504050655 80 121 2.6 7.0 0.00 0.01 0.01 68 1016.0
20260504050156 81 141 2.6 7.0 0.00 0.01 0.01 67 1015.9
20260504045655 81 122 1.7 6.1 0.00 0.01 0.01 67 1015.9
20260504045153 81 58 1.7 6.1 0.00 0.01 0.01 67 1015.9
20260504044653 81 124 1.7 7.8 0.00 0.01 0.01 66 1015.9
20260504044152 81 115 1.7 8.7 0.00 0.01 0.01 65 1015.9
20260504043645 81 122 1.7 8.7 0.00 0.01 0.01 65 1015.8
20260504043406 81 112 1.7 7.0 0.00 0.01 0.01 65 1015.8
20260504042641 81 68 2.6 7.0 0.00 0.01 0.01 65 1015.8
20260504042139 81 126 3.5 8.7 0.00 0.01 0.01 66 1015.8
20260504041639 81 124 3.5 8.7 0.00 0.01 0.01 65 1015.8
20260504041139 81 120 2.6 8.7 0.00 0.01 0.01 64 1015.9
20260504040824 81 109 3.5 8.7 0.00 0.01 0.01 64 1015.9
20260504040711 81 122 2.6 8.7 0.00 0.01 0.01 64 1015.9
20260504035553 81 122 4.3 8.7 0.00 0.01 0.01 64 1015.9
20260504035053 81 121 3.5 8.7 0.00 0.01 0.01 64 1016.0
20260504034555 81 115 1.7 7.0 0.00 0.01 0.01 65 1016.0
20260504034053 82 59 2.6 7.0 0.00 0.01 0.01 66 1016.0
20260504033553 81 81 2.6 7.0 0.00 0.01 0.01 65 1016.1
20260504033054 81 117 2.6 8.7 0.00 0.01 0.01 63 1016.1
20260504032553 82 39 1.7 8.7 0.00 0.01 0.01 63 1016.2
20260504032054 82 145 1.7 7.0 0.00 0.01 0.01 63 1016.1
20260504031553 82 104 2.6 7.0 0.00 0.01 0.01 63 1016.2
20260504031050 83 113 2.6 7.8 0.00 0.01 0.01 64 1016.3
20260504030549 83 120 2.6 7.8 0.00 0.01 0.01 64 1016.5
20260504030055 83 109 2.6 7.8 0.00 0.01 0.01 64 1016.6
20260504025540 82 169 1.7 7.8 0.00 0.01 0.01 63 1016.5
20260504025038 82 141 2.6 7.8 0.00 0.01 0.01 63 1016.6
20260504024539 82 132 2.6 8.7 0.00 0.01 0.01 63 1016.7
20260504024036 82 120 3.5 8.7 0.00 0.01 0.01 64 1016.8
20260504023759 82 114 3.5 8.7 0.00 0.01 0.01 63 1016.9
20260504023035 82 111 3.5 9.6 0.00 0.01 0.01 63 1017.0
20260504022535 82 118 3.5 9.6 0.00 0.01 0.01 64 1017.1
20260504022035 82 108 2.6 7.0 0.00 0.01 0.01 64 1017.1
20260504021535 81 118 2.6 7.0 0.00 0.01 0.01 65 1017.1
20260504021034 81 128 1.7 7.0 0.00 0.01 0.01 66 1017.2
20260504020534 81 77 2.6 7.8 0.00 0.01 0.01 66 1017.3
20260504020032 80 133 3.5 7.8 0.00 0.01 0.01 66 1017.4
20260504015747 80 114 3.5 7.8 0.00 0.01 0.01 66 1017.5
20260504015024 80 93 3.5 7.8 0.00 0.01 0.01 64 1017.5
20260504014747 81 116 2.6 7.8 0.00 0.01 0.01 64 1017.5
20260504014024 81 113 1.7 7.8 0.00 0.01 0.01 65 1017.6
20260504013511 81 124 1.7 6.1 0.00 0.01 0.01 66 1017.8
20260504013010 80 54 2.6 6.1 0.00 0.01 0.01 66 1017.9
20260504012508 80 122 1.7 6.1 0.00 0.01 0.01 65 1017.9
20260504012009 80 123 1.7 6.1 0.00 0.01 0.01 65 1018.0
20260504011731 80 111 1.7 7.0 0.00 0.01 0.01 66 1018.0
20260504011228 80 122 2.6 7.0 0.00 0.01 0.01 67 1018.0
20260504010504 79 119 2.6 7.0 0.00 0.01 0.01 67 1018.1
20260504010002 80 118 2.6 7.0 0.00 0.01 0.01 66 1018.2
20260504005455 80 122 1.7 7.0 0.00 0.01 0.01 68 1018.2
20260504004953 80 111 2.6 7.8 0.00 0.01 0.01 68 1018.3
20260504004451 80 125 1.7 9.6 0.00 0.01 0.01 67 1018.3
20260504004208 80 104 2.6 9.6 0.00 0.01 0.01 68 1018.4
20260504003450 80 97 3.5 9.6 0.00 0.01 0.01 67 1018.4
20260504002949 80 143 3.5 9.6 0.00 0.01 0.01 69 1018.4
20260504002504 80 115 3.5 9.6 0.00 0.01 0.01 70 1018.5
20260504001941 79 144 3.5 9.6 0.00 0.01 0.01 71 1018.5
20260504001453 79 118 2.6 7.8 0.00 0.01 0.01 71 1018.6
20260504000939 79 122 2.6 8.7 0.00 0.01 0.01 71 1018.6
20260504000452 79 117 3.5 8.7 0.00 0.01 0.01 72 1018.7
20260503235939 78 121 3.5 8.7 0.00 0.01 0.01 72 1018.8
20260503235657 78 131 3.5 8.7 0.00 0.01 0.01 74 1018.8
20260503234936 77 120 3.5 8.7 0.00 0.01 0.01 76 1018.9
20260503234434 77 124 3.5 7.8 0.00 0.01 0.01 77 1018.8
20260503233929 77 106 2.6 7.8 0.00 0.01 0.01 77 1018.8
20260503233427 77 123 2.6 7.0 0.00 0.01 0.01 78 1018.7
20260503233148 76 68 2.6 7.0 0.00 0.01 0.01 80 1018.7
20260503232428 76 124 2.6 7.8 0.00 0.01 0.01 81 1018.6
20260503231903 76 120 1.7 7.8 0.00 0.01 0.01 83 1018.7
20260503231337 75 50 1.7 4.3 0.00 0.01 0.01 85 1018.5
20260503230813 74 128 1.7 4.3 0.00 0.01 0.01 86 1018.7
20260503230503 74 122 1.7 4.3 0.00 0.01 0.01 88 1018.7
20260503225718 73 113 1.7 3.5 0.00 0.01 0.01 90 1018.7
20260503225149 73 106 2.6 4.3 0.00 0.01 0.01 91 1018.7
20260503224637 72 120 1.7 4.3 0.00 0.01 0.01 92 1018.7
20260503224140 72 135 0.9 3.5 0.00 0.01 0.01 93 1018.8
20260503223610 71 135 0.9 3.5 0.00 0.01 0.01 94 1018.8
20260503223311 71 135 0.0 3.5 0.00 0.01 0.01 95 1018.9
20260503222518 70 231 0.9 2.6 0.00 0.01 0.01 95 1018.8
20260503221953 69 231 0.9 2.6 0.00 0.01 0.01 95 1018.8
20260503221425 69 231 0.9 2.6 0.00 0.01 0.01 95 1018.7
20260503220900 69 231 0.0 2.6 0.00 0.01 0.01 95 1018.8
20260503220335 68 231 0.0 1.7 0.00 0.01 0.01 95 1018.7
20260503215834 67 231 0.0 0.9 0.00 0.01 0.01 95 1018.7
20260503215556 67 231 0.0 0.9 0.00 0.01 0.01 95 1018.7
20260503214832 67 231 0.0 0.9 0.00 0.01 0.01 95 1018.7
20260503214330 66 231 0.0 0.0 0.00 0.01 0.01 95 1018.7
20260503213828 66 231 0.0 1.7 0.00 0.01 0.01 95 1018.7
20260503213543 65 231 0.0 1.7 0.00 0.01 0.01 95 1018.7
20260503213042 65 231 0.0 1.7 0.00 0.01 0.01 95 1018.7
20260503212323 65 231 0.0 0.0 0.00 0.01 0.01 95 1018.7
20260503212257 64 231 0.0 0.0 0.00 0.01 0.01 95 1018.7
20260503211321 64 231 0.0 0.0 0.00 0.01 0.01 95 1018.7
20260503210819 64 231 0.0 0.0 0.00 0.01 0.01 95 1018.7
20260503210538 64 231 0.0 0.0 0.00 0.01 0.01 95 1018.6
20260503205816 64 231 0.0 0.0 0.00 0.01 0.01 95 1018.5
20260503205316 63 231 0.0 0.0 0.00 0.01 0.01 95 1018.5
20260503204814 63 231 0.0 0.0 0.00 0.01 0.01 94 1018.4
20260503204313 63 231 0.0 0.0 0.00 0.01 0.01 94 1018.4
20260503203813 63 231 0.0 0.0 0.00 0.01 0.01 94 1018.3
20260503203311 63 231 0.0 0.0 0.00 0.01 0.01 94 1018.3
20260503202809 63 231 0.0 0.0 0.00 0.01 0.01 94 1018.2
20260503202529 63 231 0.0 0.0 0.00 0.01 0.01 94 1018.1
20260503202026 63 231 0.0 0.0 0.00 0.01 0.01 94 1018.2
20260503201304 63 231 0.0 0.0 0.00 0.01 0.01 94 1018.0
20260503200802 63 231 0.0 0.0 0.00 0.01 0.01 94 1018.0
20260503200259 63 231 0.0 0.0 0.00 0.01 0.01 94 1018.0
20260503195757 63 231 0.0 0.0 0.00 0.01 0.01 94 1017.9
20260503195251 62 231 0.0 0.0 0.00 0.01 0.01 94 1017.9
20260503195006 62 231 0.0 0.0 0.00 0.01 0.01 94 1017.8
20260503194247 62 231 0.0 0.0 0.00 0.01 0.01 94 1017.8
20260503194012 62 231 0.0 3.5 0.00 0.01 0.01 94 1017.8
20260503193220 62 231 0.0 3.5 0.00 0.01 0.01 94 1017.7
20260503192652 62 231 0.9 3.5 0.00 0.01 0.01 94 1017.7
20260503192131 62 231 0.9 3.5 0.00 0.01 0.01 94 1017.6
20260503191856 62 231 0.0 0.0 0.00 0.01 0.01 94 1017.6
20260503191117 62 231 0.0 0.0 0.00 0.01 0.01 94 1017.7
20260503190617 62 231 0.0 0.0 0.00 0.01 0.01 94 1017.6
20260503190111 62 231 0.0 0.9 0.00 0.01 0.01 94 1017.6
20260503185559 62 231 0.0 1.7 0.00 0.01 0.01 94 1017.7
20260503185052 62 231 0.0 1.7 0.00 0.01 0.01 94 1017.7
20260503184553 62 231 0.0 1.7 0.00 0.01 0.01 94 1017.7
20260503184049 62 231 0.0 1.7 0.00 0.01 0.01 94 1017.7
20260503183548 62 231 0.0 2.6 0.00 0.01 0.01 94 1017.6
20260503183315 62 231 0.9 2.6 0.00 0.01 0.01 94 1017.6
20260503182547 62 231 0.0 2.6 0.00 0.01 0.01 94 1017.5